Showing default

SNAP-3 EDDIE, 40972

Orbit data source: Space-Track

SNAP-3 EDDIE, 40972 is a payload satellite owned by SMDC (US) in LEO that was launched on Thu, 08 Oct 2015 UTC via an ATLAS V 401 launch vehicle from the Air Force Western Test Range (AFWTR). Payloads include a variety of satellites, spacecraft, and rockets equipped with specific instruments for various scientific and technological missions. These include communications satellites like Starlink; space stations such as the ISS; scientific satellites like the Hubble; Earth observation satellites from companies like Planet Labs, Umbra, and HawkEye 360; GPS; miniature CubeSats for education and research; and military/defense satellites.

Loading next visibility...
SNAP-3 EDDIE details
Identifier
40972, 2015-058J
Orbit
LEO
Last TLE update21 hours ago
Origin
Flag of USSMDC (US)
ManufacturerDuocomm Miltec
MissionOperational Defense Communications
Bus & MotorCUBESAT 3U, Unknown motor
Mass5.3 kg wet, 4.5 kg dry
Launch date (UTC)
2015-10-08 (9 years ago)
Launch vehicle
ATLAS V 401
Launch site
Air Force Western Test Range (AFWTR)
Object type
Payload
Rocket body
Debris
Shape & HBRBox + 8 Pan, 0.5 m
Radar Cross Section0.085 m², Medium (>0.1 m² and < 1m²)

Expand to show TLE details & history

TLE from 21 hours ago
0 SNAP-3 EDDIE
1 40972U 15058J   24360.61941616  .00047210  00000-0  24320-2 0  9997
2 40972  64.7651  73.5777 0130298 245.6724 113.0747 15.08972142 36632
Epoch: 2024-12-25T14:51Z
Definitive object data (Epoch: 2024-12-25T14:51:57.556Z)
Latitude-0.00002°
Longitude115.97731°
Altitude577.678 km
Speed7.552 km/s
True Right ascension04h 54m 18s
True Declination0° 00' 00"
Sunlit
Object was in full shadow at TLE epoch
Visualization TLE readout
Latitude-15.00248°
Longitude106.01714°
Altitude555.949 km
Speed7.577 km/s
Apparent Right ascension02h 02m 19s
Apparent Declination-33° 23' 45"
Sunlit
Object is in full shadow
Visualization observer readout
Local Sidereal Time10:49:31
Azimuth264.029° W
Elevation-51.259°
Doppler factor1
Orbital elements
Apogee altitude628.011 km
Perigee altitude447.782 km
Semi-major axis6,916.033 km
Eccentricity0.0130298
Inclination64.7651°
RAAN73.5777°
Arg. of periapsis245.6724°
True anomaly114.4395°
Mean anomaly113.0747°
Eccentric anomaly113.75799°
Mean motion3.77361 °/min
BSTAR0.002432
Orbital period95.4 mins
Loading maneuver chart data...
Loading historical data...
Loading historical data...
Loading historical data...
Loading historical data...
Loading historical data...
Loading historical data...
Loading historical data...

SNAP-3 EDDIE Visibility forecast

Observer location: undefined°, undefined

Span
Click to sort rows by Start time (UTC) header in descending order
Start Az.
Max El. time (UTC)
Max El. Az.
Max El.
End time (UTC)
End Az.
7 mins2024-12-26 15:15:10.318Z339.842° N2024-12-26 15:19:10.318Z57.179° ENE36.126°2024-12-26 15:22:10.318Z123.848° SE
7 mins2024-12-27 06:47:10.318Z219.759° SW2024-12-27 06:50:10.318Z308.241° NW43.911°2024-12-27 06:54:10.318Z27.858° NE
|